Tracking 19192 objects as of 19-Jun-2018
HD Live streaming from Space Station
objects crossing your sky now

COSMOS 785

Track COSMOS 785 now!
10-day predictions
COSMOS 785 is classified as:


NORAD ID: 8473
Int'l Code: 1975-116A
Perigee: 896.0 km
Apogee: 1,030.7 km
Inclination: 65.1 °
Period: 104.2 minutes
Semi major axis: 7334 km
RCS: 3.5974 m2 (large)
Launch date: December 12, 1975
Source: Commonwealth of Independent States (former USSR) (CIS)
Launch site: TYURATAM MISSILE AND SPACE COMPLEX (TTMTR)
aabbcc
Your satellite tracking list
Your tracking list is empty




NASA's NSSDC Master Catalog

Two Line Element Set (TLE):
1  8473U 75116A   18169.83699714 -.00000071 +00000-0 +15468-4 0  9991
2  8473 065.0778 314.0575 0091819 233.9608 125.2919 13.82175224145410
Source of the keplerian elements: AFSPC